| time (UTC) | temp C | wind direction | speed KPH | gust KPH | rain 1hr cm | rain 24hr cm | rain mn cm | humidity % | barometer mb |
| 20260906230436 | 36 | 86 | 11.3 | 12.9 | 0.00 | 0.00 | 0.00 | 37 | 1012.4 |
| 20260906225436 | 36 | 140 | 11.3 | 12.9 | 0.00 | 0.00 | 0.00 | 36 | 1012.3 |
| 20260906224435 | 36 | 162 | 12.9 | 16.1 | 0.00 | 0.00 | 0.00 | 36 | 1012.5 |
| 20260906223437 | 36 | 148 | 9.7 | 9.7 | 0.00 | 0.00 | 0.00 | 37 | 1012.6 |
| 20260906222517 | 36 | 171 | 9.7 | 11.3 | 0.00 | 0.00 | 0.00 | 35 | 1012.9 |
| 20260906221437 | 36 | 152 | 12.9 | 14.5 | 0.00 | 0.00 | 0.00 | 37 | 1012.6 |
| 20260906220457 | 36 | 88 | 14.5 | 17.7 | 0.00 | 0.00 | 0.00 | 36 | 1012.5 |
| 20260906215437 | 36 | 117 | 17.7 | 22.5 | 0.00 | 0.00 | 0.00 | 36 | 1012.4 |
| 20260906214437 | 36 | 189 | 11.3 | 14.5 | 0.00 | 0.00 | 0.00 | 37 | 1012.4 |
| 20260906213437 | 36 | 130 | 22.5 | 25.7 | 0.00 | 0.00 | 0.00 | 37 | 1012.5 |
| 20260906212437 | 36 | 116 | 6.4 | 6.4 | 0.00 | 0.00 | 0.00 | 36 | 1013.0 |
| 20260906211437 | 36 | 169 | 6.4 | 9.7 | 0.00 | 0.00 | 0.00 | 38 | 1013.0 |
| 20260906210436 | 36 | 164 | 16.1 | 17.7 | 0.00 | 0.00 | 0.00 | 38 | 1013.1 |
| 20260906205437 | 36 | 188 | 6.4 | 9.7 | 0.00 | 0.00 | 0.00 | 38 | 1013.4 |
| 20260906204437 | 36 | 144 | 8.0 | 9.7 | 0.00 | 0.00 | 0.00 | 38 | 1013.3 |
| 20260906203438 | 35 | 113 | 11.3 | 12.9 | 0.00 | 0.00 | 0.00 | 38 | 1013.5 |
| 20260906202436 | 35 | 167 | 9.7 | 11.3 | 0.00 | 0.00 | 0.00 | 39 | 1013.9 |
| 20260906201436 | 35 | 141 | 4.8 | 6.4 | 0.00 | 0.00 | 0.00 | 40 | 1014.0 |
| 20260906200436 | 35 | 82 | 14.5 | 14.5 | 0.00 | 0.00 | 0.00 | 39 | 1014.0 |
| 20260906195437 | 35 | 115 | 11.3 | 12.9 | 0.00 | 0.00 | 0.00 | 38 | 1014.0 |
| 20260906194436 | 35 | 76 | 9.7 | 14.5 | 0.00 | 0.00 | 0.00 | 40 | 1014.1 |
| 20260906193437 | 35 | 132 | 12.9 | 16.1 | 0.00 | 0.00 | 0.00 | 39 | 1014.2 |
| 20260906192437 | 35 | 84 | 11.3 | 14.5 | 0.00 | 0.00 | 0.00 | 39 | 1014.2 |
| 20260906191437 | 36 | 152 | 14.5 | 22.5 | 0.00 | 0.00 | 0.00 | 38 | 1014.6 |
| 20260906190457 | 35 | 83 | 6.4 | 6.4 | 0.00 | 0.00 | 0.00 | 40 | 1014.5 |
| 20260906185436 | 36 | 197 | 6.4 | 9.7 | 0.00 | 0.00 | 0.00 | 39 | 1014.7 |
| 20260906184439 | 35 | 90 | 8.0 | 9.7 | 0.00 | 0.00 | 0.00 | 41 | 1014.9 |
| 20260906183436 | 35 | 188 | 8.0 | 9.7 | 0.00 | 0.00 | 0.00 | 44 | 1014.9 |
| 20260906182457 | 35 | 197 | 3.2 | 4.8 | 0.00 | 0.00 | 0.00 | 43 | 1015.0 |
| 20260906181437 | 34 | 194 | 4.8 | 4.8 | 0.00 | 0.00 | 0.00 | 45 | 1015.2 |
| 20260906180457 | 34 | 171 | 6.4 | 9.7 | 0.00 | 0.00 | 0.00 | 46 | 1015.2 |
| 20260906175436 | 33 | 88 | 14.5 | 16.1 | 0.00 | 0.00 | 0.00 | 46 | 1015.6 |
| 20260906174436 | 33 | 132 | 12.9 | 16.1 | 0.00 | 0.00 | 0.00 | 46 | 1015.5 |
| 20260906173457 | 33 | 150 | 14.5 | 14.5 | 0.00 | 0.00 | 0.00 | 46 | 1015.7 |
| 20260906172438 | 33 | 189 | 4.8 | 6.4 | 0.00 | 0.00 | 0.00 | 48 | 1015.9 |
| 20260906171437 | 33 | 120 | 4.8 | 6.4 | 0.00 | 0.00 | 0.00 | 49 | 1016.2 |
| 20260906170437 | 34 | 142 | 6.4 | 6.4 | 0.00 | 0.00 | 0.00 | 47 | 1016.1 |
| 20260906165437 | 34 | 144 | 9.7 | 12.9 | 0.00 | 0.00 | 0.00 | 48 | 1016.2 |
| 20260906164437 | 33 | 130 | 6.4 | 9.7 | 0.00 | 0.00 | 0.00 | 51 | 1016.2 |
| 20260906163436 | 32 | 90 | 12.9 | 14.5 | 0.00 | 0.00 | 0.00 | 55 | 1016.4 |
| 20260906162437 | 32 | 218 | 8.0 | 12.9 | 0.00 | 0.00 | 0.00 | 53 | 1016.3 |
| 20260906161436 | 32 | 159 | 14.5 | 14.5 | 0.00 | 0.00 | 0.00 | 51 | 1016.1 |
| 20260906160436 | 31 | 163 | 9.7 | 11.3 | 0.00 | 0.00 | 0.00 | 55 | 1016.0 |
| 20260906155436 | 31 | 114 | 9.7 | 11.3 | 0.00 | 0.00 | 0.00 | 57 | 1016.1 |
| 20260906154436 | 32 | 67 | 6.4 | 6.4 | 0.00 | 0.00 | 0.00 | 61 | 1016.1 |
| 20260906153436 | 31 | 150 | 3.2 | 3.2 | 0.00 | 0.00 | 0.00 | 63 | 1016.0 |
| 20260906152436 | 30 | 180 | 3.2 | 4.8 | 0.00 | 0.00 | 0.00 | 67 | 1016.1 |
| 20260906151457 | 30 | 123 | 3.2 | 4.8 | 0.00 | 0.00 | 0.00 | 69 | 1016.0 |
| 20260906150436 | 30 | 132 | 6.4 | 6.4 | 0.00 | 0.00 | 0.00 | 71 | 1015.9 |
| 20260906145436 | 30 | 112 | 6.4 | 6.4 | 0.00 | 0.00 | 0.00 | 73 | 1015.9 |
| 20260906144436 | 30 | 86 | 4.8 | 4.8 | 0.00 | 0.00 | 0.00 | 72 | 1016.2 |
| 20260906143438 | 28 | 104 | 3.2 | 3.2 | 0.00 | 0.00 | 0.00 | 75 | 1015.9 |
| 20260906142437 | 29 | 80 | 1.6 | 3.2 | 0.00 | 0.00 | 0.00 | 75 | 1016.0 |
| 20260906141458 | 28 | 143 | 1.6 | 1.6 | 0.00 | 0.00 | 0.00 | 79 | 1016.0 |
| 20260906140437 | 27 | 82 | 3.2 | 4.8 | 0.00 | 0.00 | 0.00 | 81 | 1016.0 |
| 20260906135437 | 27 | 94 | 4.8 | 4.8 | 0.00 | 0.00 | 0.00 | 82 | 1015.8 |
| 20260906134457 | 27 | 132 | 3.2 | 3.2 | 0.00 | 0.00 | 0.00 | 83 | 1015.9 |
| 20260906133436 | 26 | 114 | 4.8 | 4.8 | 0.00 | 0.00 | 0.00 | 84 | 1015.7 |
| 20260906132438 | 26 | 83 | 1.6 | 3.2 | 0.00 | 0.00 | 0.00 | 84 | 1015.9 |
| 20260906131436 | 26 | 88 | 0.0 | 0.0 | 0.00 | 0.00 | 0.00 | 87 | 1015.9 |
| 20260906130436 | 25 | 111 | 1.6 | 1.6 | 0.00 | 0.00 | 0.00 | 88 | 1015.9 |
| 20260906125436 | 25 | 136 | 1.6 | 1.6 | 0.00 | 0.00 | 0.00 | 88 | 1015.8 |
| 20260906124456 | 25 | 137 | 0.0 | 0.0 | 0.00 | 0.00 | 0.00 | 90 | 1015.6 |
| 20260906123436 | 24 | 137 | 1.6 | 1.6 | 0.00 | 0.00 | 0.00 | 92 | 1015.5 |
| 20260906122437 | 23 | 174 | 1.6 | 1.6 | 0.00 | 0.00 | 0.00 | 92 | 1015.5 |
| 20260906121437 | 23 | 169 | 0.0 | 0.0 | 0.00 | 0.00 | 0.00 | 93 | 1015.4 |
| 20260906120436 | 24 | 169 | 0.0 | 0.0 | 0.00 | 0.00 | 0.00 | 91 | 1015.3 |
| 20260906115437 | 24 | 170 | 1.6 | 1.6 | 0.00 | 0.00 | 0.00 | 91 | 1015.1 |
| 20260906114517 | 24 | 172 | 1.6 | 1.6 | 0.00 | 0.00 | 0.00 | 90 | 1014.9 |
| 20260906113437 | 25 | 172 | 0.0 | 0.0 | 0.00 | 0.00 | 0.00 | 89 | 1015.1 |
| 20260906112457 | 25 | 172 | 1.6 | 1.6 | 0.00 | 0.00 | 0.00 | 89 | 1015.0 |
| 20260906111437 | 25 | 172 | 3.2 | 3.2 | 0.00 | 0.00 | 0.00 | 88 | 1015.0 |
| 20260906110437 | 25 | 174 | 3.2 | 4.8 | 0.00 | 0.00 | 0.00 | 88 | 1015.2 |
| 20260906105437 | 25 | 189 | 6.4 | 6.4 | 0.00 | 0.00 | 0.00 | 88 | 1014.9 |
| 20260906104437 | 25 | 156 | 3.2 | 3.2 | 0.00 | 0.00 | 0.00 | 87 | 1014.7 |
| 20260906103438 | 25 | 152 | 3.2 | 3.2 | 0.00 | 0.00 | 0.00 | 88 | 1014.7 |
| 20260906102437 | 25 | 162 | 3.2 | 3.2 | 0.00 | 0.00 | 0.00 | 87 | 1014.7 |
| 20260906101437 | 25 | 118 | 3.2 | 3.2 | 0.00 | 0.00 | 0.00 | 88 | 1014.8 |
| 20260906100437 | 25 | 119 | 1.6 | 1.6 | 0.00 | 0.00 | 0.00 | 89 | 1014.8 |
| 20260906095437 | 25 | 0.0 | 0.0 | 0.00 | 0.00 | 0.00 | 88 | 1014.6 | |
| 20260906094436 | 25 | 119 | 0.0 | 0.0 | 0.00 | 0.00 | 0.00 | 88 | 1014.4 |
| 20260906093437 | 25 | 119 | 1.6 | 1.6 | 0.00 | 0.00 | 0.00 | 86 | 1014.3 |
| 20260906092437 | 25 | 119 | 0.0 | 1.6 | 0.00 | 0.00 | 0.00 | 86 | 1014.3 |
| 20260906091436 | 25 | 119 | 1.6 | 1.6 | 0.00 | 0.00 | 0.00 | 86 | 1014.2 |
| 20260906090437 | 25 | 125 | 3.2 | 3.2 | 0.00 | 0.00 | 0.00 | 86 | 1014.1 |
| 20260906085437 | 25 | 161 | 3.2 | 3.2 | 0.00 | 0.00 | 0.00 | 85 | 1014.1 |
| 20260906084437 | 25 | 151 | 3.2 | 3.2 | 0.00 | 0.00 | 0.00 | 84 | 1014.1 |
| 20260906083437 | 25 | 141 | 1.6 | 1.6 | 0.00 | 0.00 | 0.00 | 84 | 1014.0 |
| 20260906082437 | 25 | 149 | 3.2 | 4.8 | 0.00 | 0.00 | 0.00 | 83 | 1013.9 |
| 20260906081437 | 25 | 133 | 6.4 | 6.4 | 0.00 | 0.00 | 0.00 | 83 | 1013.9 |
| 20260906080436 | 26 | 165 | 3.2 | 3.2 | 0.00 | 0.00 | 0.00 | 82 | 1014.1 |
| 20260906075437 | 26 | 167 | 3.2 | 3.2 | 0.00 | 0.00 | 0.00 | 81 | 1014.1 |
| 20260906074437 | 26 | 147 | 4.8 | 4.8 | 0.00 | 0.00 | 0.00 | 80 | 1014.3 |
| 20260906073438 | 26 | 170 | 4.8 | 6.4 | 0.00 | 0.00 | 0.00 | 79 | 1014.0 |
| 20260906072437 | 26 | 125 | 3.2 | 3.2 | 0.00 | 0.00 | 0.00 | 78 | 1014.0 |
| 20260906071457 | 26 | 0.0 | 0.0 | 0.00 | 0.00 | 0.00 | 78 | 1014.1 | |
| 20260906070437 | 26 | 182 | 1.6 | 1.6 | 0.00 | 0.00 | 0.00 | 77 | 1014.4 |
| 20260906065437 | 27 | 177 | 3.2 | 3.2 | 0.00 | 0.00 | 0.00 | 76 | 1014.5 |
| 20260906064436 | 27 | 190 | 4.8 | 6.4 | 0.00 | 0.00 | 0.00 | 75 | 1014.3 |
| 20260906063458 | 27 | 184 | 4.8 | 6.4 | 0.00 | 0.00 | 0.00 | 74 | 1014.5 |
| 20260906062518 | 27 | 166 | 3.2 | 4.8 | 0.00 | 0.00 | 0.00 | 74 | 1014.1 |
| 20260906061437 | 27 | 155 | 3.2 | 3.2 | 0.00 | 0.00 | 0.00 | 74 | 1014.3 |
| 20260906060437 | 27 | 128 | 6.4 | 6.4 | 0.00 | 0.00 | 0.00 | 73 | 1014.4 |
| 20260906055437 | 27 | 95 | 3.2 | 4.8 | 0.00 | 0.00 | 0.00 | 74 | 1014.4 |
| 20260906054437 | 27 | 133 | 1.6 | 1.6 | 0.00 | 0.00 | 0.00 | 73 | 1014.5 |
| 20260906053437 | 27 | 176 | 0.0 | 0.0 | 0.00 | 0.00 | 0.00 | 70 | 1014.5 |
| 20260906052457 | 27 | 141 | 6.4 | 6.4 | 0.00 | 0.00 | 0.00 | 70 | 1014.3 |
| 20260906051437 | 27 | 151 | 6.4 | 6.4 | 0.00 | 0.00 | 0.00 | 70 | 1014.5 |
| 20260906050437 | 28 | 178 | 1.6 | 1.6 | 0.00 | 0.00 | 0.00 | 70 | 1014.0 |
| 20260906045437 | 28 | 176 | 3.2 | 3.2 | 0.00 | 0.00 | 0.00 | 70 | 1014.0 |
| 20260906044436 | 28 | 140 | 4.8 | 6.4 | 0.00 | 0.00 | 0.00 | 70 | 1014.3 |
| 20260906043457 | 28 | 172 | 3.2 | 4.8 | 0.00 | 0.00 | 0.00 | 70 | 1014.5 |
| 20260906042437 | 28 | 146 | 1.6 | 1.6 | 0.00 | 0.00 | 0.00 | 69 | 1014.4 |
| 20260906041437 | 28 | 172 | 4.8 | 6.4 | 0.00 | 0.00 | 0.00 | 68 | 1014.5 |
| 20260906040437 | 28 | 159 | 3.2 | 3.2 | 0.00 | 0.00 | 0.00 | 68 | 1014.4 |
| 20260906035438 | 28 | 120 | 4.8 | 4.8 | 0.00 | 0.00 | 0.00 | 67 | 1014.4 |
| 20260906034437 | 28 | 174 | 4.8 | 4.8 | 0.00 | 0.00 | 0.00 | 66 | 1014.3 |
| 20260906033437 | 29 | 159 | 6.4 | 6.4 | 0.00 | 0.00 | 0.00 | 65 | 1014.3 |
| 20260906032457 | 29 | 198 | 4.8 | 4.8 | 0.00 | 0.00 | 0.00 | 64 | 1014.4 |
| 20260906031436 | 29 | 169 | 1.6 | 1.6 | 0.00 | 0.00 | 0.00 | 63 | 1014.4 |
| 20260906030436 | 30 | 153 | 3.2 | 3.2 | 0.00 | 0.00 | 0.00 | 62 | 1014.2 |
| 20260906025436 | 30 | 159 | 6.4 | 9.7 | 0.00 | 0.00 | 0.00 | 61 | 1014.5 |
| 20260906024437 | 30 | 171 | 3.2 | 6.4 | 0.00 | 0.00 | 0.00 | 60 | 1014.1 |
| 20260906023437 | 30 | 162 | 6.4 | 6.4 | 0.00 | 0.00 | 0.00 | 60 | 1013.9 |
| 20260906022437 | 30 | 168 | 6.4 | 6.4 | 0.00 | 0.00 | 0.00 | 58 | 1013.9 |
| 20260906021457 | 30 | 181 | 8.0 | 9.7 | 0.00 | 0.00 | 0.00 | 58 | 1013.7 |
| 20260906020436 | 30 | 147 | 6.4 | 9.7 | 0.00 | 0.00 | 0.00 | 57 | 1013.7 |
| 20260906015437 | 30 | 184 | 9.7 | 12.9 | 0.00 | 0.00 | 0.00 | 56 | 1013.6 |
| 20260906014436 | 31 | 98 | 11.3 | 11.3 | 0.00 | 0.00 | 0.00 | 55 | 1013.3 |
| 20260906013516 | 31 | 134 | 8.0 | 12.9 | 0.00 | 0.00 | 0.00 | 55 | 1013.4 |
| 20260906012437 | 31 | 195 | 14.5 | 16.1 | 0.00 | 0.00 | 0.00 | 55 | 1013.3 |
| 20260906011437 | 31 | 166 | 9.7 | 12.9 | 0.00 | 0.00 | 0.00 | 53 | 1013.0 |
| 20260906010457 | 32 | 137 | 16.1 | 24.1 | 0.00 | 0.00 | 0.00 | 52 | 1013.0 |
| 20260906005436 | 33 | 145 | 16.1 | 17.7 | 0.00 | 0.00 | 0.00 | 49 | 1012.5 |
| 20260906004437 | 33 | 138 | 16.1 | 20.9 | 0.00 | 0.00 | 0.00 | 47 | 1012.4 |
| 20260906003437 | 35 | 172 | 9.7 | 9.7 | 0.00 | 0.00 | 0.00 | 42 | 1012.3 |
| 20260906002437 | 35 | 158 | 3.2 | 3.2 | 0.00 | 0.00 | 0.00 | 40 | 1012.3 |
| 20260906001437 | 35 | 134 | 4.8 | 4.8 | 0.00 | 0.00 | 0.00 | 39 | 1012.4 |
| 20260906000437 | 36 | 174 | 3.2 | 4.8 | 0.00 | 0.00 | 0.00 | 37 | 1012.3 |
| 20260905235436 | 36 | 169 | 4.8 | 4.8 | 0.00 | 0.00 | 0.00 | 37 | 1012.3 |
| 20260905234438 | 36 | 184 | 4.8 | 4.8 | 0.00 | 0.00 | 0.00 | 37 | 1012.0 |
| 20260905233436 | 36 | 162 | 3.2 | 4.8 | 0.00 | 0.00 | 0.00 | 36 | 1012.3 |
| 20260905232436 | 35 | 109 | 6.4 | 6.4 | 0.00 | 0.00 | 0.00 | 38 | 1012.1 |
| 20260905231436 | 36 | 61 | 6.4 | 9.7 | 0.00 | 0.00 | 0.00 | 38 | 1012.2 |